Lid_Strength_Index
8 7 7 7 8 7 8 7 9 8 9 9 8 8 7 6 6 6 5 4 4 4 3 3 2 2 1 2 1 1 1 1 1 0 -0 0 0 1 1 0 -0 0 1 2
9 8 8 9 7 7 7 7 8 8 9 6 7 6 7 6 6 5 5 5 4 4 3 3 3 2 2 2 1 1 1 1 1 0 0 0 0 0 0 1 1 2 3 3
10 9 9 11 9 8 9 8 8 10 8 8 8 7 7 6 6 6 5 5 4 4 3 3 2 2 2 1 1 1 1 1 1 1 0 1 1 2 3 2 1 2 3 4
11 10 14 10 7 8 8 8 7 8 8 7 7 6 5 5 5 6 5 4 4 3 3 2 2 2 1 1 1 2 1 2 2 3 3 2 3 2 1 1 2 3 3 4
12 12 11 10 9 9 9 10 7 8 7 6 6 6 6 4 4 4 4 3 3 2 2 1 3 2 1 2 1 2 2 2 1 1 1 0 1 1 2 2 3 3 3 3
9 12 14 9 7 6 6 12 7 6 7 7 6 9 8 4 4 3 3 3 3 2 3 2 2 1 2 2 2 2 2 2 1 1 0 0 0 1 2 2 3 4 3 1
10 11 10 8 6 5 11 10 6 6 6 6 7 6 5 4 4 3 3 3 2 2 2 2 1 1 2 3 3 2 2 1 0 -0 0 -0 0 1 1 2 3 2 1 1
9 10 13 6 7 9 7 5 5 5 5 5 5 4 4 4 4 3 3 3 2 2 2 1 1 1 2 3 2 2 1 1 1 0 0 -0 -0 1 -0 -0 1 1 1 1
10 10 7 5 6 5 4 5 5 5 4 4 5 4 4 4 4 4 3 3 2 2 3 2 1 1 3 2 1 1 2 1 1 0 0 -1 -0 0 0 -0 1 1 2 2
8 8 7 6 5 4 4 4 4 3 4 4 4 4 4 4 4 3 2 2 2 2 2 2 1 1 1 1 0 0 1 1 -0 -0 -0 -1 -1 -1 -1 -1 -0 1 1 1
9 7 6 6 5 4 4 3 4 3 3 3 4 4 4 3 3 3 2 2 2 2 2 2 1 0 0 -0 -0 1 1 1 0 -0 -1 -0 -1 0 -1 -1 2 1 1 1
8 6 6 6 4 3 4 4 3 3 3 3 3 4 3 3 2 2 2 2 2 2 1 1 1 1 0 -0 -0 0 1 1 1 0 0 -0 0 0 8 7 7 7 7 5
6 4 4 4 3 3 3 3 3 3 3 3 2 3 3 3 2 3 2 2 2 2 1 1 0 0 -1 -1 -1 -0 1 2 2 2 1 1 0 1 2 4 7 8 8 8
4 4 6 4 5 3 3 2 3 2 2 2 2 2 2 2 2 2 2 1 1 1 1 0 0 1 -0 -0 -0 0 0 4 1 1 1 0 1 2 0 1 2 2 7 5
4 3 4 3 3 3 2 3 3 3 3 3 2 2 2 2 2 2 1 1 1 1 1 1 1 0 -1 -1 -0 -0 0 0 0 0 1 1 -0 -0 0 0 0 1 2 5
3 3 3 4 4 3 3 3 4 3 3 3 2 2 2 2 2 2 1 1 1 2 1 1 0 -0 -1 -1 -0 -0 -0 3 3 -0 -0 -0 0 0 1 1 1 1 2 3
5 5 4 4 4 4 3 3 3 3 2 2 2 2 2 2 2 2 1 1 0 0 0 0 0 -1 -1 -1 -0 -1 -0 -0 3 0 1 1 0 1 1 1 2 3 3 6
3 3 3 3 3 3 3 2 2 2 2 2 2 2 2 2 2 2 1 1 1 0 0 -0 -0 -0 -1 -0 -1 -0 -1 -0 -0 -0 -0 1 1 1 2 3 3 3 3 6
3 3 3 3 2 2 2 2 2 2 2 2 2 2 2 1 1 1 1 1 1 2 1 0 6 3 -0 0 0 -1 -0 0 1 1 2 5 3 3 3 4 4 4 4 4
3 2 2 2 2 2 2 2 2 2 1 1 1 2 2 2 1 1 1 1 1 2 -0 -0 0 -0 -1 0 4 -0 1 1 2 2 2 2 3 3 5 8 5 5 4 4
3 3 2 2 2 2 2 1 2 2 2 1 2 2 2 1 1 1 1 2 1 1 1 5 1 0 -0 1 1 0 1 1 1 1 2 2 3 3 4 4 4 4 4 4
3 3 3 2 2 2 2 1 1 2 2 2 1 1 1 2 1 1 1 2 1 8 2 1 0 6 2 5 -0 0 0 0 0 1 1 2 2 2 3 3 3 3 3 3
2 2 2 2 2 2 2 2 1 1 2 1 2 1 2 1 1 2 3 0 1 4 1 1 9 11 10 1 -0 -0 0 0 0 1 1 1 2 2 2 3 3 3 3 3
2 2 2 2 2 2 3 2 1 1 1 1 1 1 1 1 1 1 1 5 9 6 2 3 7 12 13 2 1 1 0 1 1 1 1 7 1 2 2 2 3 3 3 5
2 2 2 2 3 2 2 1 1 1 1 1 1 0 0 1 2 1 1 1 9 5 2 12 12 12 3 2 1 1 1 1 1 1 1 1 1 2 2 2 2 2 2 2
3 3 2 2 2 2 2 1 2 1 2 2 2 1 1 1 1 1 1 3 1 5 2 3 3 3 2 2 2 1 1 1 2 2 2 1 1 1 2 2 3 3 2 1
2 4 2 2 2 1 1 1 2 2 3 2 2 2 1 1 2 2 4 1 1 1 2 2 3 4 2 2 2 1 1 1 4 1 1 1 1 1 2 2 2 2 2 2